Hourly Data Report for May 07, 2021

WINNIPEG THE FORKS
MANITOBA
Current Station Operator: ECCC - MSC

49°53'18.008" N
97°07'46.007" W
230.00 m
5023262
71579
XWN

Download Data

Hourly Data (May 2021)
Hourly Data Report for May 7, 2021
TIME
LST
Temp Definition
°C
Dew Point Definition
°C
Rel Hum Definition
%
Precip. Amount Definition
mm

Wind Dir Definition
10's deg

Wind Spd Definition
km/h
Visibility Definition
km
Stn Press Definition
kPa
Hmdx Definition


Wind Chill Definition


Weather Definition


00:00 3.5 -5.1 53 0.0 33 7   99.56     LegendNANA
01:00 3.3 -4.9 55 0.0 32 5   99.61     LegendNANA
02:00 3.3 -5.0 55 0.0 34 5   99.55     LegendNANA
03:00 3.7 -4.7 54 0.0 33 8   99.59     LegendNANA
04:00 3.6 -4.0 57 0.0 31 4   99.60     LegendNANA
05:00 3.4 -3.8 59 0.0 32 7   99.63     LegendNANA
06:00 3.2 -3.7 61 0.0 35 7   99.68     LegendNANA
07:00 4.3 -2.8 60 0.0 3 6   99.70     LegendNANA
08:00 6.1 -2.9 52 0.0 5 4   99.71     LegendNANA
09:00 6.4 -3.4 50 0.0 35 8   99.70     LegendNANA
10:00 7.8 -3.3 45 0.0 2 8   99.67     LegendNANA
11:00 9.0 -4.0 40 0.0 2 5   99.63     LegendNANA
12:00 10.5 -5.5 32 0.0 2 9   99.58     LegendNANA
13:00 11.9 -4.9 31 0.0 1 6   99.50     LegendNANA
14:00 12.5 -4.6 30 0.0 5 3   99.46     LegendNANA
15:00 12.4 -5.7 28 0.0 9 3   99.40     LegendNANA
16:00 12.8 -5.5 27 0.0 2 3   99.34     LegendNANA
17:00 12.9 -4.4 30 0.0 6 7   99.30     LegendNANA
18:00 12.3 -4.4 31 0.0 4 5   99.29     LegendNANA
19:00 10.5 -4.7 34 0.0 5 6   99.31     LegendNANA
20:00 8.6 -4.8 38 0.0 2 8   99.33     LegendNANA
21:00 7.6 -4.8 41 0.0 2 5   99.38     LegendNANA
22:00 6.6 -5.2 43 0.0 3 6   99.40     LegendNANA
23:00 6.0 -4.9 46 0.0 2 4   99.41     LegendNANA

Notes on Data Quality.

Legend

  • E = Estimated
  • M = Missing
  • NA = Not Available*
  • [empty] = Indicates an unobserved value
Date modified: